Regional Weather Roundup
Issued by NWS

Home | Current Version | Previous Version | Graphics & Text | Print | Product List | Glossary On
Versions: 1 2 3 4 5 6 7 8 9 10 11 12 13 14 15 16 17 18 19 20 21 22 23 24 25 26 27 28 29 30 31 32 33 34 35 36 37 38 39 40 41 42 43 44 45 46 47 48 49 50
000
ASUS43 KBIS 280610
RWRND

NORTH DAKOTA REGIONAL WEATHER ROUNDUP
NATIONAL WEATHER SERVICE BISMARCK ND
100 AM CDT WED SEP 28 2016

NOTE: "FAIR" INDICATES FEW OR NO CLOUDS BELOW 12,000 FEET WITH NO
SIGNIFICANT WEATHER AND/OR OBSTRUCTIONS TO VISIBILITY.


NDZ001>003-009>011-017-280700-
NORTHWEST NORTH DAKOTA

CITY           SKY/WX    TMP DP  RH WIND       PRES   REMARKS
WILLISTON      CLEAR     51  47  86 CALM      30.01R
6HR MIN TEMP:  51; 6HR MAX TEMP:  78;

MINOT          CLEAR     49  40  71 E6        30.05R
MINOT AFB      CLEAR     44  40  85 SE6       30.04R
$$

NDZ018>021-031>035-040>046-280700-
SOUTHWEST NORTH DAKOTA

CITY           SKY/WX    TMP DP  RH WIND       PRES   REMARKS
BISMARCK       CLEAR     42  40  92 CALM      30.06R
6HR MIN TEMP:  42; 6HR MAX TEMP:  70;

DICKINSON      CLEAR     51  44  77 S10       30.04R
GARRISON         N/A     45  42  89 CALM      30.05R
6HR MIN TEMP:  44; 6HR MAX TEMP:  67;

HETTINGER ARPT CLEAR     48  44  86 CALM      30.08R
$$

NDZ004>008-012>016-024-026-027-054-280700-
NORTHEAST NORTH DAKOTA

CITY           SKY/WX    TMP DP  RH WIND       PRES   REMARKS
GRAND FORKS    CLOUDY    51  42  71 N5        30.07R
GRND FRKS AFB  CLOUDY    50  43  78 NE3       30.08R
DEVILS LAKE    CLOUDY    43  41  93 E3        30.09R
$$

NDZ022-023-025-028>030-036>039-047>053-280700-
SOUTHEAST NORTH DAKOTA

CITY           SKY/WX    TMP DP  RH WIND       PRES   REMARKS
FARGO          CLOUDY    45  39  79 N6        30.05R
6HR MIN TEMP:  45; 6HR MAX TEMP:  56;

JAMESTOWN      CLOUDY    40  39  97 N3        30.06R
$$




USA.gov is the U.S. government's official web portal to all federal, state and local government web resources and services.